Regional Weather Roundup
Issued by NWS

Home | Current Version | Previous Version | Graphics & Text | Print | Product List | Glossary On
Versions: 1 2 3 4 5 6 7 8 9 10 11 12 13 14 15 16 17 18 19 20 21 22 23 24 25 26 27 28 29 30 31 32 33 34 35 36 37 38 39 40 41 42 43 44 45 46 47 48 49 50
000
ASUS43 KOAX 270510
RWRNE

WEATHER ROUNDUP FOR NEBRASKA
NATIONAL WEATHER SERVICE OMAHA NE
1200 AM CDT FRI APR 27 2018

NOTES: SATELLITE DATA IS BEING USED TO AUGMENT CLOUD COVER ABOVE
       12000 FEET.
       "FAIR" INDICATES FEW OR NO CLOUDS BELOW 12,000 FEET WITH NO
       SIGNIFICANT WEATHER AND/OR OBSTRUCTIONS TO VISIBILITY.


NEZ001>004-019>022-054>056-270600-
NEBRASKA PANHANDLE

CITY           SKY/WX    TMP DP  RH WIND       PRES   REMARKS
SCOTTSBLUFF    CLEAR     41  30  65 E5        30.18F
ALLIANCE       CLEAR     34  30  85 W6        30.15F WCI  29
CHADRON        CLEAR     41  32  70 W12       30.13F
GORDON         FAIR      37  32  83 NW3       30.12F
KIMBALL        CLEAR     35  28  75 W9        30.22F WCI  28
SIDNEY         CLEAR     31  26  82 W5        30.20F WCI  26
$$

NEZ057>060-069>072-079>082-270600-
SOUTHWEST NEBRASKA

CITY           SKY/WX    TMP DP  RH WIND       PRES   REMARKS
NORTH PLATTE   CLEAR     37  30  75 CALM      30.15F
IMPERIAL       CLEAR     41  30  65 SW5       30.18F
LEXINGTON      CLEAR     40  31  72 W6        30.14S
MCCOOK         CLEAR     41  32  70 W8        30.16F
OGALLALA       CLEAR     37  32  82 W5        30.17F WCI  33
$$

NEZ005>010-023>029-035>040-094-270600-
NORTH CENTRAL NEBRASKA

CITY           SKY/WX    TMP DP  RH WIND       PRES   REMARKS
VALENTINE      CLEAR     41  31  67 SW7       30.09F
AINSWORTH      CLEAR     42  32  69 W7        30.10S
BROKEN BOW     CLEAR     35  28  75 CALM      30.12S
O`NEILL        CLEAR     44  32  62 SW6       30.08F
ORD            CLEAR     39  30  70 CALM      30.10S
THEDFORD       CLEAR     43  30  59 SW3       30.13F
$$

NEZ041-046>049-061>064-073>077-083>087-270600-
SOUTH CENTRAL NEBRASKA

CITY           SKY/WX    TMP DP  RH WIND       PRES   REMARKS
GRAND ISLAND   CLEAR     42  31  64 W6        30.11F
AURORA         CLEAR     40  28  63 W5        30.10F
HASTINGS       CLEAR     44  30  57 W5        30.12F
HEBRON         CLEAR     43  32  64 CALM      30.12S
HOLDREGE       CLEAR     42  30  62 CALM      30.13F
KEARNEY        CLEAR     44  30  57 W3        30.13F
YORK             N/A     37  28  70 CALM      30.10F
$$

NEZ011>018-030>034-042>045-270600-
NORTHEAST NEBRASKA

CITY           SKY/WX    TMP DP  RH WIND       PRES   REMARKS
NORFOLK        CLEAR     38  32  79 W3        30.06F
ALBION         CLEAR     37  32  81 CALM      30.09S
BLAIR          CLEAR     47  31  53 NW3       30.05S
COLUMBUS       CLEAR     35  30  82 W3        30.09S
FREMONT        CLEAR     43  30  61 W6        30.06F
TEKAMAH        CLEAR     41  28  60 W7        30.05S
WAYNE          CLEAR     36  32  84 SW5       30.06S WCI  32
$$

NEZ050>053-065>068-078-088>093-270600-
SOUTHEAST NEBRASKA

CITY           SKY/WX    TMP DP  RH WIND       PRES   REMARKS
LINCOLN        CLEAR     41  28  60 CALM      30.09F
OMAHA EPPLEY   CLEAR     48  29  47 CALM      30.05F
BEATRICE       CLEAR     45  31  57 N5        30.09F
FALLS CITY     CLEAR     46  31  55 NW7       30.05R
NEBRASKA CITY  CLEAR     48  31  50 NW9       30.06S
PLATTSMOUTH    CLEAR     48  29  48 NW8       30.06S
$$

NEZ044-045-051>053-067-270600-
OMAHA AREA

CITY           SKY/WX    TMP DP  RH WIND       PRES   REMARKS
OMAHA EPPLEY   CLEAR     48  29  47 CALM      30.05F
BLAIR          CLEAR     47  31  53 NW3       30.05S
FREMONT        CLEAR     43  30  61 W6        30.06F
MILLARD        CLEAR     50  32  50 CALM      30.06F
OFFUTT AFB     CLEAR     49  29  46 W3        30.04F
PLATTSMOUTH    CLEAR     48  29  48 NW8       30.06S
WAHOO          FAIR      46  27  47 NW6       30.07S
$$



USA.gov is the U.S. government's official web portal to all federal, state and local government web resources and services.